sat.trackr.live / text

‹ back to catalog

STARLINK-3419

NORAD 51463 · 2022-010H

PAYLOAD ACTIVE UNKNOWN

§ Identity

Operator
Country
US
Launch date
2022-02-03
Launch site
AFETR
Launch vehicle
Mass (kg)
RCS (m²)

Purposes: comms

External: N2YO · Heavens-Above · Gunter

§ Orbital elements

Epoch: 2026-05-25T02:45:57.479040Z

Period
95.44 min
Inclination
53.2140°
Eccentricity
0.0001458
Mean motion
15.08837888 rev/d
Perigee alt
538.7 km
Apogee alt
540.8 km
Semi-major
6,917.9 km
B*
3.7976e-5
RAAN
296.0275°
Arg perigee
95.8860°
Mean anomaly
264.2299°
Rev number
23,805

§ Raw data

STARLINK-34191 51463U 22010H   26145.11524860  .00000316  00000+0  37976-4 0  99942 51463  53.2140 296.0275 0001458  95.8860 264.2299 15.08837888238059

JSON: /api/v1/satellites/51463 · /tle

For live sub-satellite position, see the globe view (requires WebGL).

§ Visibility from observer

Set your observer location to see the next 7 days of passes ≥ 10°. The values pass through the URL so the page stays shareable.

No JS? Fill the form by hand. The geolocation button needs JavaScript.